Regional Weather Roundup
Issued by NWS

Home | Current Version | Previous Version | Graphics & Text | Print | Product List | Glossary Off
Versions: 1 2 3 4 5 6 7 8 9 10 11 12 13 14 15 16 17 18 19 20 21 22 23 24 25 26 27 28 29 30 31 32 33 34 35 36 37 38 39 40 41 42 43 44 45 46 47 48 49 50

000
ASUS43 KDMX 300603
RWRIA

WEATHER ROUNDUP FOR IOWA
NATIONAL WEATHER SERVICE DES MOINES IA
100 AM CDT MON MAY 30 2016

NOTE: "FAIR" INDICATES FEW OR NO CLOUDS BELOW 12,000 FEET WITH NO
SIGNIFICANT WEATHER AND/OR OBSTRUCTIONS TO VISIBILITY.

* - THESE STATIONS ARE NOT NWS STATIONS...THUS NOT UNDER NWS
QUALITY CONTROL.  THEY ALSO DO NOT REPORT WEATHER SUCH
AS PRECIPITATION OR FOG.

IAZ001>003-012>014-020>022-031>034-043>046-300700-
   NORTHWEST IOWA

CITY           SKY/WX    TMP DP  RH WIND       PRES   REMARKS
CARROLL *      CLOUDY    64  61  88 SE3       30.02S
CHEROKEE *     CLOUDY    57  56  98 CALM      30.02S
DENISON *      CLOUDY    64  57  77 CALM      30.01R
LE MARS *      CLOUDY    63  59  88 CALM      30.01F HAZE
ORANGE CITY *  CLEAR     66  52  59 E3        30.02S
SHELDON *      CLOUDY    59  55  88 CALM      30.01S
SIOUX CITY     CLOUDY    67  56  67 SE5       30.00S
6HR MIN TEMP:  66; 6HR MAX TEMP:  82;

SPENCER        CLOUDY    58  53  84 CALM      30.04S
6HR MIN TEMP:  58; 6HR MAX TEMP:  76;

STORM LAKE *   CLEAR     64  50  59 E7        30.04R
$$

IAZ055>058-069>071-079>083-090>094-300700-
   SOUTHWEST IOWA

CITY           SKY/WX    TMP DP  RH WIND       PRES   REMARKS
ATLANTIC *     CLOUDY    66  63  88 CALM      30.02F
AUDUBON *      CLOUDY    63  57  82 CALM      30.04S
CLARINDA *       N/A     68  63  83 MISG      30.04S
COUNCIL BLFS * CLEAR     70  59  68 S7        30.02S
CRESTON *      PTCLDY    70  61  73 SW5       30.05F
HARLAN  *      CLOUDY    68  61  77 SE3       30.05F
LAMONI         LGT RAIN  69  63  81 SW8       30.04S
6HR MIN TEMP:  67; 6HR MAX TEMP:  80; 6HR PCP: TRACE;

RED OAK *      CLOUDY    68  64  88 CALM      30.02F
SHENANDOAH *   CLOUDY    72  64  78 SW6       30.03S
$$

IAZ047>049-059>061-072>074-084-300700-
   CENTRAL IOWA

CITY           SKY/WX    TMP DP  RH WIND       PRES   REMARKS
AMES           CLOUDY    64  58  80 CALM      30.02S
6HR MIN TEMP:  62; 6HR MAX TEMP:  82;

ANKENY *       CLOUDY    64  59  82 CALM      30.02S
BOONE *        CLOUDY    66  55  68 NE6       30.02F
CHARITON *     CLOUDY    68  63  83 S6        30.03S
DES MOINES     CLOUDY    72  58  61 CALM      30.01F
6HR MIN TEMP:  70; 6HR MAX TEMP:  82;

GRINNELL*      CLOUDY    67  58  70 S6        30.02F
KNOXVILLE *    CLOUDY    68  59  73 S8        30.02R
MARSHALLTOWN   CLOUDY    64  59  83 N5        30.02S
6HR MIN TEMP:  64; 6HR MAX TEMP:  79;

NEWTON *       CLOUDY    68  61  77 CALM      30.02S
PELLA *        CLOUDY    67  59  75 CALM      30.03S
PERRY *          N/A     68  59  73 NE3       30.03S
$$

IAZ004>006-015-016-023>025-035-036-300700-
   NORTH CENTRAL IOWA

CITY           SKY/WX    TMP DP  RH WIND       PRES   REMARKS
ALGONA *       CLEAR     63  52  67 CALM      30.03F
CLARION *      CLEAR     61  54  77 NE5       30.03S
ESTHERVILLE    CLEAR     57  54  89 W5        30.02F
6HR MIN TEMP:  57; 6HR MAX TEMP:  74;

FORT DODGE *   CLOUDY    59  50  72 CALM      30.03F
MASON CITY     CLEAR     59  52  77 W7        30.04S
6HR MIN TEMP:  58; 6HR MAX TEMP:  75;

FOREST CITY *  CLEAR     54  54 100 CALM      30.03S FOG
WEBSTER CITY * CLOUDY    59  57  94 SE3       30.01S
IOWA FALLS *     N/A     62  59  88 CALM      30.04S
$$

IAZ007>011-017>019-026>030-037>042-050>054-066-300700-
   NORTHEAST IOWA

CITY           SKY/WX    TMP DP  RH WIND       PRES   REMARKS
CEDAR RAPIDS   CLOUDY    66  60  81 N6        30.02R
6HR MIN TEMP:  65; 6HR MAX TEMP:  79;

CHARLES CITY * CLEAR     63  55  77 W5        30.03S
CLINTON *      MOCLDY    67  61  81 CALM      30.02S
DECORAH *      CLEAR     63  59  88 SW3       30.01S
DUBUQUE        CLEAR     63  58  83 S3        30.02S
6HR MIN TEMP:  62; 6HR MAX TEMP:  75;

MONTICELLO *   CLEAR     63  61  94 CALM      30.02S
OELWEIN *      CLEAR     63  59  88 SW5       30.03S
WATERLOO       CLEAR     62  59  90 CALM      30.01S
6HR MIN TEMP:  62; 6HR MAX TEMP:  79;

$$

IAZ064-065-067-068-078-300700-
   EAST CENTRAL IOWA

CITY           SKY/WX    TMP DP  RH WIND       PRES   REMARKS
DAVENPORT      PTCLDY    69  57  65 SW6       30.03S
6HR MIN TEMP:  69; 6HR MAX TEMP:  80;

IOWA CITY      CLOUDY    67  58  72 CALM      30.03S
6HR MIN TEMP:  66; 6HR MAX TEMP:  80;

MT. PLEASANT * CLOUDY    68  63  83 S3        30.03F
MUSCATINE *    CLOUDY    66  61  82 CALM      30.02F
QUAD CITIES    MOCLDY    70  56  61 CALM      30.01F
6HR MIN TEMP:  68; 6HR MAX TEMP:  80;

$$

IAZ062-063-075>077-085>089-095>099-300700-
   SOUTHEAST IOWA

CITY           SKY/WX    TMP DP  RH WIND       PRES   REMARKS
BURLINGTON     PTCLDY    66  61  84 CALM      30.03F
6HR MIN TEMP:  65; 6HR MAX TEMP:  80;

FAIRFIELD *      N/A    N/A N/A N/A MISG        N/A
FORT MADISON * CLOUDY    66  63  88 CALM      30.04F
KEOKUK *       CLOUDY    68  63  83 CALM      30.03F
OSKALOOSA *      N/A     66  59  77 S7        30.02F
OTTUMWA        CLOUDY    67  61  81 S6        30.02F
6HR MIN TEMP:  67; 6HR MAX TEMP:  80;

WASHINGTON *   CLEAR     64 N/A N/A S6        30.04S
$$

ABBREVIATIONS USED IN REMARKS
   TC - TEMPERATURES IN CELSIUS
  WCI - WIND CHILL INDEX
   HX - HEAT INDEX
  VSB - VISIBILITY
$$





USA.gov is the U.S. government's official web portal to all federal, state and local government web resources and services.